Dubuque, IA

4:16 AM CDT on October 21, 2019 (GMT -0500)
Dubuque Regional

Weather History for KDBQ - September, 2019

Change the Weather History Date:

Monday, September 16, 2019

  Actual Average Record
Temperature  
Mean Temperature 69 °F 62 °F  
Max Temperature 81 °F 72 °F 96 °F (1931)
Min Temperature 57 °F 52 °F 34 °F (1984)
Degree Days  
Heating Degree Days 0 5  
Month to date heating degree days 24 49  
Since 1 July heating degree days 33 76  
Cooling Degree Days 4 2  
Month to date cooling degree days 51 45  
Year to date cooling degree days 624 621  
Growing Degree Days 19 (Base 50)    
Moisture  
Dew Point 63 °F    
Average Humidity 91    
Maximum Humidity 100    
Minimum Humidity 60    
Precipitation  
Precipitation 0.00 in 0.12 in 1.90 in (1987)
Month to date precipitation 8.34 1.88  
Year to date precipitation 39.47 27.86  
Snow  
Snow 0.00 in 0.00 in - ()
Month to date snowfall 0.0 0.0  
Since 1 July snowfall 0.0 0.0  
Since 1 September snowfall 0.0 0.0  
Snow Depth 0.00 in    
Sea Level Pressure  
Sea Level Pressure 30.10 in    
Wind  
Wind Speed 3 mph ()    
Max Wind Speed 13 mph    
Max Gust Speed 16 mph    
Visibility 4.1 miles    
Events Fog    
T = Trace of Precipitation, MM = Missing Value Source: Averaged Metar Reports

Daily Weather History Graph

Daily Weather History Graph

Search for Another Location

Airport or City:

Astronomy

Sep. 16, 2019 Rise Set
Actual Time 6:43 AM CDT 7:11 PM CDT
Civil Twilight 6:15 AM CDT 7:39 PM CDT
Nautical Twilight 5:42 AM CDT 8:12 PM CDT
Astronomical Twilight 5:07 AM CDT 8:46 PM CDT
Moon 8:43 PM CDT (9/16) 8:52 AM CDT (9/16)
Length of Visible Light 13h 23m
Length of Day
12h 27m
Waning Gibbous, 94% of the Moon is Illuminated
Sep 16
Waning Gibbous
Sep 21
Last Quarter
Sep 28
New
Oct 5
First Quarter
Oct 13
Full

Hourly Weather History & Observations

Time (CDT) Temp. Heat Index Dew Point Humidity Pressure Visibility Wind Dir Wind Speed Gust Speed Precip Events Conditions
12:03 AM 62.1 °F - 62.1 °F 100% 30.07 in 0.5 mi Calm Calm - N/A Fog Fog
12:20 AM 60.1 °F - 60.1 °F 100% 30.06 in 0.2 mi ENE 3.5 mph - N/A Fog Fog
12:34 AM 61.0 °F - 61.0 °F 100% 30.07 in 0.8 mi Calm Calm - N/A   Mist
12:40 AM 61.0 °F - 61.0 °F 100% 30.07 in 0.2 mi Calm Calm - N/A Fog Fog
12:53 AM 61.0 °F - 61.0 °F 100% 30.06 in 0.2 mi Calm Calm - N/A Fog Fog
1:02 AM 61.0 °F - 61.0 °F 100% 30.07 in 0.2 mi Calm Calm - N/A Fog Fog
1:53 AM 63.0 °F - 63.0 °F 100% 30.07 in 0.2 mi NE 5.8 mph - N/A Fog Fog
2:04 AM 63.0 °F - 63.0 °F 100% 30.08 in 0.2 mi NE 5.8 mph - N/A Fog Fog
2:12 AM 63.0 °F - 63.0 °F 100% 30.08 in 0.2 mi NE 6.9 mph - N/A Fog Fog
2:17 AM 63.0 °F - 63.0 °F 100% 30.08 in 0.2 mi NE 6.9 mph - N/A Fog Fog
2:53 AM 63.0 °F - 63.0 °F 100% 30.07 in 0.2 mi NE 6.9 mph - N/A Fog Fog
3:53 AM 63.0 °F - 63.0 °F 100% 30.08 in 0.2 mi Calm Calm - N/A Fog Fog
4:37 AM 61.0 °F - 61.0 °F 100% 30.10 in 0.5 mi Calm Calm - N/A Fog Fog
4:53 AM 60.1 °F - 60.1 °F 100% 30.09 in 0.5 mi Calm Calm - N/A Fog Fog
5:00 AM 60.1 °F - 60.1 °F 100% 30.10 in 0.2 mi Calm Calm - N/A Fog Fog
5:07 AM 60.1 °F - 60.1 °F 100% 30.10 in 0.2 mi Calm Calm - N/A Fog Fog
5:34 AM 59.0 °F - 59.0 °F 100% 30.10 in 0.2 mi Calm Calm - N/A Fog Fog
5:53 AM 60.1 °F - 60.1 °F 100% 30.09 in 0.2 mi ENE 4.6 mph - N/A Fog Fog
6:16 AM 57.9 °F - 57.9 °F 100% 30.11 in 0.2 mi NE 3.5 mph - N/A Fog Fog
6:32 AM 60.1 °F - 60.1 °F 100% 30.12 in 0.5 mi NE 3.5 mph - N/A Fog Fog
6:34 AM 60.1 °F - 60.1 °F 100% 30.12 in 0.2 mi NE 3.5 mph - N/A Fog Fog
6:53 AM 59.0 °F - 59.0 °F 100% 30.11 in 0.2 mi Calm Calm - N/A Fog Fog
7:17 AM 60.1 °F - 60.1 °F 100% 30.12 in 0.5 mi Calm Calm - N/A Fog Fog
7:35 AM 60.1 °F - 60.1 °F 100% 30.13 in 1.2 mi Calm Calm - N/A   Clear
7:43 AM 61.0 °F - 61.0 °F 100% 30.14 in 2.0 mi Calm Calm - N/A   Clear
7:53 AM 62.1 °F - 62.1 °F 100% 30.14 in 2.0 mi Calm Calm - N/A   Partly Cloudy
8:53 AM 66.9 °F - 66.9 °F 100% 30.15 in 10.0 mi SSE 3.5 mph - N/A   Clear
9:53 AM 73.0 °F - 66.0 °F 79% 30.15 in 10.0 mi East 6.9 mph - N/A   Clear
10:53 AM 75.0 °F - 64.9 °F 71% 30.14 in 10.0 mi ESE 5.8 mph - N/A   Clear
11:53 AM 77.0 °F - 64.9 °F 66% 30.13 in 10.0 mi SE 11.5 mph - N/A   Clear
12:53 PM 78.1 °F - 64.9 °F 64% 30.13 in 10.0 mi ESE 8.1 mph - N/A   Clear
1:53 PM 79.0 °F - 64.9 °F 62% 30.11 in 10.0 mi SE 5.8 mph - N/A   Clear
2:53 PM 80.1 °F 82.1 °F 66.0 °F 62% 30.10 in 10.0 mi Variable 5.8 mph - N/A   Clear
3:53 PM 81.0 °F 83.0 °F 66.0 °F 60% 30.09 in 10.0 mi ESE 6.9 mph - N/A   Clear
4:53 PM 79.0 °F - 68.0 °F 69% 30.09 in 10.0 mi SSE 5.8 mph - N/A   Clear
5:53 PM 78.1 °F - 66.9 °F 68% 30.09 in 10.0 mi SSE 5.8 mph - N/A   Clear
6:53 PM 73.9 °F - 66.9 °F 79% 30.09 in 10.0 mi ESE 6.9 mph - N/A   Clear
7:53 PM 73.0 °F - 66.9 °F 81% 30.09 in 10.0 mi ESE 9.2 mph - N/A   Clear
8:53 PM 69.1 °F - 66.9 °F 93% 30.09 in 10.0 mi SSE 4.6 mph - N/A   Clear
9:53 PM 66.9 °F - 66.0 °F 97% 30.10 in 10.0 mi South 4.6 mph - N/A   Clear
10:53 PM 66.9 °F - 66.0 °F 97% 30.11 in 10.0 mi Calm Calm - N/A   Clear
11:53 PM 66.9 °F - 64.9 °F 93% 30.11 in 10.0 mi SSE 6.9 mph - N/A   Clear